User: anonymous   Login
Location: Unspecified
(0.0000°N, 0.0000°E)
Time: 00:09:08
(UTC+00:00)
Language:

Vela 6A - Orbit

View from above orbital plane
View from above orbital plane
View from above satellite
View from above satellite

Ground track
Ground track

The orbit data is extracted from the following two-line orbital elements,

1  4366U 70027A   17151.11381816 +.00000434 +00000-0 +00000-0 0  9990
2  4366 044.1857 201.4016 6686230 070.1590 000.7562 00.21467077030622
Epoch (UTC): 31 May 2017 02:43:53
Eccentricity: 0.6686230
inclination: 44.1857°
perigee height: 32664 km
apogee height: 190217 km
right ascension of ascending node: 201.4016°
argument of perigee: 70.1590°
revolutions per day: 0.21467077
mean anomaly at epoch: 0.7562°
orbit number at epoch: 3062

The dashed part of the orbit path shows where the satellite is in the earth's shadow,  

DLR